K4MUW-4 Weather Reports


time (UTC)temp
C
wind
direction
speed
KPH
gust
KPH
rain 1hr
cm
rain 24hr
cm
rain mn
cm
humidity
%
barometer
mb
20260504140114 13 204 0.0 6.4 0.00 0.00 0.00 75 1015.0
20260504130609 9 216 0.0 0.0 0.00 0.00 0.00 80 1014.0
20260504130108 9 216 0.0 0.0 0.00 0.00 0.00 80 1014.0
20260504110557 6 216 0.0 0.0 0.00 0.00 0.00 76 1014.0
20260504100551 6 216 0.0 0.0 0.00 0.00 0.00 74 1014.0
20260504081541 7 216 0.0 0.0 0.00 0.00 0.00 71 1014.0
20260504081041 7 216 0.0 0.0 0.00 0.00 0.00 70 1014.0
20260504080540 7 216 0.0 0.0 0.00 0.00 0.00 70 1014.0
20260504050525 10 216 0.0 0.0 0.00 0.00 0.00 61 1015.0
20260504050024 10 216 0.0 0.0 0.00 0.00 0.00 61 1015.0
20260504045524 10 216 0.0 0.0 0.00 0.00 0.00 61 1015.0
20260504045024 10 216 0.0 0.0 0.00 0.00 0.00 61 1015.0
20260504044523 10 216 0.0 0.0 0.00 0.00 0.00 61 1015.0
20260504044023 10 216 0.0 0.0 0.00 0.00 0.00 62 1015.0
20260504043522 10 216 0.0 0.0 0.00 0.00 0.00 62 1015.0
20260504043022 10 216 0.0 0.0 0.00 0.00 0.00 63 1015.0
20260504042021 10 216 0.0 0.0 0.00 0.00 0.00 59 1015.0
20260504041521 10 216 0.0 0.0 0.00 0.00 0.00 59 1015.0
20260504041020 10 216 0.0 0.0 0.00 0.00 0.00 60 1015.0
20260504040520 10 216 0.0 0.0 0.00 0.00 0.00 61 1015.0
20260504040020 10 216 0.0 0.0 0.00 0.00 0.00 59 1015.0
20260504035519 10 216 0.0 0.0 0.00 0.00 0.00 58 1015.0
20260504035019 10 216 0.0 4.8 0.00 0.00 0.00 59 1015.0
20260504034518 10 216 0.0 4.8 0.00 0.00 0.00 59 1015.0
20260504034018 11 216 0.0 0.0 0.00 0.00 0.00 56 1015.0
20260504033518 11 216 0.0 0.0 0.00 0.00 0.00 56 1015.0
20260504033017 11 216 0.0 0.0 0.00 0.00 0.00 54 1015.0
20260504032517 11 216 0.0 0.0 0.00 0.00 0.00 55 1015.0
20260504032016 11 216 0.0 0.0 0.00 0.00 0.00 54 1015.0
20260504031516 10 216 0.0 4.8 0.00 0.00 0.00 54 1015.0
20260504031016 10 216 0.0 4.8 0.00 0.00 0.00 56 1015.0
20260504030515 11 216 4.8 4.8 0.00 0.00 0.00 57 1015.0
20260504030015 11 216 4.8 0.0 0.00 0.00 0.00 54 1015.0
20260504025514 12 216 0.0 0.0 0.00 0.00 0.00 50 1015.0
20260504025014 12 216 0.0 0.0 0.00 0.00 0.00 49 1015.0
20260504024513 12 216 0.0 0.0 0.00 0.00 0.00 49 1015.0
20260504024013 12 216 0.0 0.0 0.00 0.00 0.00 50 1015.0
20260504023513 12 216 0.0 0.0 0.00 0.00 0.00 49 1015.0
20260504023012 12 216 0.0 0.0 0.00 0.00 0.00 48 1015.0
20260504022512 12 216 0.0 0.0 0.00 0.00 0.00 49 1015.0
20260504022011 12 216 0.0 0.0 0.00 0.00 0.00 49 1015.0
20260504021511 12 216 0.0 0.0 0.00 0.00 0.00 47 1015.0
20260504021010 12 216 0.0 0.0 0.00 0.00 0.00 47 1015.0
20260504020510 12 216 0.0 0.0 0.00 0.00 0.00 47 1015.0
20260504020010 13 216 0.0 0.0 0.00 0.00 0.00 46 1015.0
20260504015509 13 216 0.0 0.0 0.00 0.00 0.00 46 1015.0
20260504015009 13 216 0.0 0.0 0.00 0.00 0.00 45 1015.0
20260504014508 13 216 0.0 0.0 0.00 0.00 0.00 45 1015.0
20260504014008 13 216 0.0 0.0 0.00 0.00 0.00 45 1015.0
20260504013508 13 216 0.0 0.0 0.00 0.00 0.00 45 1015.0
20260504013007 13 216 0.0 0.0 0.00 0.00 0.00 45 1014.0
20260504012507 13 216 0.0 0.0 0.00 0.00 0.00 45 1014.0
20260504012007 14 216 0.0 0.0 0.00 0.00 0.00 44 1014.0
20260504011506 14 216 0.0 0.0 0.00 0.00 0.00 43 1014.0
20260504011006 14 216 0.0 0.0 0.00 0.00 0.00 42 1014.0
20260504010505 15 216 0.0 0.0 0.00 0.00 0.00 42 1014.0
20260504010005 15 216 0.0 0.0 0.00 0.00 0.00 41 1015.0
20260504005505 15 216 0.0 0.0 0.00 0.00 0.00 40 1015.0
20260504005004 15 216 0.0 0.0 0.00 0.00 0.00 40 1015.0
20260504004504 15 216 0.0 0.0 0.00 0.00 0.00 40 1015.0
20260504004003 15 216 0.0 0.0 0.00 0.00 0.00 40 1015.0
20260504003503 15 216 0.0 0.0 0.00 0.00 0.00 39 1015.0
20260504003003 15 216 0.0 0.0 0.00 0.00 0.00 39 1015.0
20260504002502 16 216 0.0 6.4 0.00 0.00 0.00 39 1015.0
20260504002002 16 216 0.0 4.8 0.00 0.00 0.00 37 1015.0
20260504001501 17 216 4.8 0.0 0.00 0.00 0.00 36 1015.0
20260504001001 17 216 0.0 4.8 0.00 0.00 0.00 35 1015.0
20260504000501 17 216 0.0 4.8 0.00 0.00 0.00 34 1015.0
20260504000000 18 216 0.0 4.8 0.00 0.00 0.00 34 1014.0
20260503235500 18 216 0.0 4.8 0.00 0.00 0.00 33 1014.0
20260503235000 19 216 0.0 6.4 0.00 0.00 0.00 32 1014.0
20260503234459 19 216 0.0 4.8 0.00 0.00 0.00 30 1014.0
20260503233959 19 214 0.0 4.8 0.00 0.00 0.00 29 1014.0
20260503233458 19 214 0.0 8.0 0.00 0.00 0.00 29 1014.0
20260503232958 19 214 0.0 9.7 0.00 0.00 0.00 28 1014.0
20260503232458 20 202 6.4 11.3 0.00 0.00 0.00 29 1014.0
20260503231957 20 243 6.4 9.7 0.00 0.00 0.00 29 1014.0
20260503231457 20 254 4.8 6.4 0.00 0.00 0.00 29 1014.0
20260503230956 20 187 4.8 11.3 0.00 0.00 0.00 29 1014.0
20260503230456 20 223 6.4 11.3 0.00 0.00 0.00 29 1014.0
20260503225956 20 193 6.4 12.9 0.00 0.00 0.00 29 1015.0
20260503225455 20 251 6.4 9.7 0.00 0.00 0.00 29 1015.0
20260503225044 20 223 4.8 9.7 0.00 0.00 0.00 29 1015.0
20260503224950 20 223 4.8 9.7 0.00 0.00 0.00 29 1015.0
20260503224450 20 218 0.0 6.4 0.00 0.00 0.00 28 1014.0
20260503223950 20 173 4.8 11.3 0.00 0.00 0.00 28 1014.0
20260503223449 20 224 4.8 9.7 0.00 0.00 0.00 29 1014.0
20260503222949 20 226 0.0 8.0 0.00 0.00 0.00 29 1015.0
20260503222440 20 311 0.0 4.8 0.00 0.00 0.00 29 1015.0
20260503221939 20 311 0.0 6.4 0.00 0.00 0.00 29 1015.0
20260503221439 20 311 0.0 8.0 0.00 0.00 0.00 30 1015.0
20260503220938 20 282 4.8 6.4 0.00 0.00 0.00 29 1015.0
20260503220438 20 293 0.0 8.0 0.00 0.00 0.00 29 1015.0
20260503215938 20 324 0.0 6.4 0.00 0.00 0.00 29 1015.0
20260503215437 20 334 4.8 11.3 0.00 0.00 0.00 28 1015.0
20260503214937 20 262 0.0 12.9 0.00 0.00 0.00 29 1015.0
20260503214437 20 248 6.4 9.7 0.00 0.00 0.00 29 1015.0
20260503213936 20 210 6.4 11.3 0.00 0.00 0.00 29 1015.0
20260503213436 20 196 4.8 9.7 0.00 0.00 0.00 29 1015.0
20260503212935 20 212 6.4 6.4 0.00 0.00 0.00 29 1015.0
20260503212435 20 256 0.0 11.3 0.00 0.00 0.00 30 1015.0
20260503211935 20 212 6.4 11.3 0.00 0.00 0.00 30 1015.0
20260503211434 20 230 0.0 16.1 0.00 0.00 0.00 30 1015.0
20260503210934 20 192 8.0 11.3 0.00 0.00 0.00 30 1015.0
20260503210434 20 212 0.0 9.7 0.00 0.00 0.00 31 1015.0
20260503205933 20 210 8.0 9.7 0.00 0.00 0.00 31 1016.0
20260503205433 20 294 6.4 9.7 0.00 0.00 0.00 31 1016.0
20260503204932 20 207 4.8 9.7 0.00 0.00 0.00 31 1016.0
20260503204432 20 199 0.0 12.9 0.00 0.00 0.00 31 1016.0
20260503203932 20 187 8.0 6.4 0.00 0.00 0.00 31 1016.0
20260503203421 20 292 4.8 12.9 0.00 0.00 0.00 31 1016.0
20260503202921 20 308 4.8 6.4 0.00 0.00 0.00 30 1016.0
20260503202420 20 304 4.8 11.3 0.00 0.00 0.00 32 1016.0
20260503201920 20 302 6.4 9.7 0.00 0.00 0.00 29 1016.0
20260503201415 20 312 4.8 9.7 0.00 0.00 0.00 28 1016.0
20260503200915 20 225 6.4 12.9 0.00 0.00 0.00 30 1016.0
20260503200415 20 187 6.4 11.3 0.00 0.00 0.00 31 1016.0
20260503195914 20 254 4.8 11.3 0.00 0.00 0.00 31 1016.0
20260503195414 20 255 8.0 9.7 0.00 0.00 0.00 30 1016.0
20260503194914 20 297 0.0 11.3 0.00 0.00 0.00 30 1016.0
20260503194413 20 294 4.8 9.7 0.00 0.00 0.00 29 1016.0
20260503193913 19 199 4.8 20.9 0.00 0.00 0.00 30 1016.0
20260503193412 19 298 4.8 11.3 0.00 0.00 0.00 29 1016.0
20260503192912 19 242 4.8 8.0 0.00 0.00 0.00 28 1017.0
20260503192412 19 276 6.4 8.0 0.00 0.00 0.00 26 1017.0
20260503191911 19 241 0.0 16.1 0.00 0.00 0.00 27 1017.0
20260503191411 19 183 6.4 12.9 0.00 0.00 0.00 28 1017.0
20260503190910 19 186 8.0 12.9 0.00 0.00 0.00 28 1017.0
20260503190410 19 310 6.4 9.7 0.00 0.00 0.00 28 1017.0
20260503185910 19 290 0.0 6.4 0.00 0.00 0.00 29 1017.0
20260503185409 19 208 4.8 8.0 0.00 0.00 0.00 31 1017.0
20260503184909 19 301 6.4 11.3 0.00 0.00 0.00 31 1017.0
20260503184409 19 197 9.7 6.4 0.00 0.00 0.00 33 1017.0
20260503183908 19 227 0.0 9.7 0.00 0.00 0.00 32 1017.0
20260503183408 19 285 4.8 12.9 0.00 0.00 0.00 31 1017.0
20260503182907 19 206 6.4 14.5 0.00 0.00 0.00 33 1017.0
20260503182407 18 200 6.4 9.7 0.00 0.00 0.00 33 1017.0
20260503181907 18 201 0.0 11.3 0.00 0.00 0.00 33 1017.0
20260503181402 18 186 8.0 11.3 0.00 0.00 0.00 33 1017.0
20260503180901 18 6 0.0 8.0 0.00 0.00 0.00 33 1017.0
20260503180401 18 6 6.4 8.0 0.00 0.00 0.00 33 1017.0
20260503175947 18 293 4.8 6.4 0.00 0.00 0.00 34 1018.0
20260503175901 18 6 6.4 8.0 0.00 0.00 0.00 33 1018.0
20260503175400 18 293 4.8 6.4 0.00 0.00 0.00 34 1018.0
20260503174900 18 210 0.0 11.3 0.00 0.00 0.00 34 1018.0
20260503174359 17 183 6.4 9.7 0.00 0.00 0.00 34 1017.0
20260503173859 17 300 0.0 6.4 0.00 0.00 0.00 34 1017.0
20260503173359 17 301 4.8 6.4 0.00 0.00 0.00 33 1017.0
20260503172858 17 356 0.0 8.0 0.00 0.00 0.00 34 1018.0
20260503172358 17 322 4.8 6.4 0.00 0.00 0.00 34 1018.0
20260503171853 17 351 0.0 8.0 0.00 0.00 0.00 34 1018.0
20260503171352 17 347 6.4 8.0 0.00 0.00 0.00 34 1018.0
20260503170852 17 351 6.4 8.0 0.00 0.00 0.00 35 1018.0
20260503170352 16 305 6.4 6.4 0.00 0.00 0.00 35 1018.0
20260503150837 13 328 0.0 6.4 0.00 0.00 0.00 48 1018.0
20260503150337 13 328 0.0 8.0 0.00 0.00 0.00 47 1018.0